Flag for U.S.A. Weather past 2 weeks in Columbus, Georgia, U.S.A.

Now
51 °F

Partly cloudy.


Feels Like: 47 °F
Forecast: 38 / 49 °F
Wind: 13 mph from Northwest

Location: Columbus Metropolitan Airport

Current Time: Jan 26, 2015 at 12:07:17 AM

Latest Report: Jan 25, 2015 at 10:51 PM


Visibility: 10 mi

Pressure: 29.81 "Hg

Humidity: 59%

Dew point: 37 °F

Location of ColumbusLocation

Historic Weather in Columbus — Graph

°F

Columbus temperature yesterday

Maximum temperature yesterday: 61 °F (at 2:51 PM)
Minimum temperature yesterday: 30 °F (at 7:51 AM)
Average temperature yesterday: 45 °F

Past Weeks' High & Low Weather Summary

 TemperatureHumidityPressure
High68 °F (Jan 19, 3:51 PM)100% (Jan 12, 9:00 AM)30.49 "Hg (Jan 12, 9:00 AM)
Low30 °F (Jan 19, 7:51 AM)16% (Jan 19, 4:51 PM)29.75 "Hg (Jan 24, 1:51 AM)
Average47 °F69%30.14 "Hg
* Reported Jan 10 10:51 PM — Jan 25 10:51 PM, Columbus, Weather by CustomWeather, © 2014

Note: Actual official high and low records may vary slightly from our data, if they occured in-between our weather recording intervals... More about our weather records

Advertising

Columbus weather history for previous 24 hours

 ConditionsComfort  
Time TempWeatherWind HumidityBarometerVisibility
10:51 PM
Jan 25
51 °FPartly cloudy.13 mph59%29.81 "Hg10 mi
9:51 PM49 °FClear.5 mph61%29.78 "Hg10 mi
8:51 PM51 °FClear.6 mph56%29.78 "Hg10 mi
7:51 PM53 °FClear.9 mph51%29.80 "Hg10 mi
6:51 PM54 °FClear.3 mph41%29.78 "Hg10 mi
5:51 PM58 °FSunny.13 mph35%29.77 "Hg10 mi
4:51 PM60 °FSunny.18 mph33%29.79 "Hg10 mi
3:51 PM61 °FSunny.16 mph34%29.80 "Hg10 mi
2:51 PM61 °FSunny.17 mph31%29.82 "Hg10 mi
1:51 PM60 °FSunny.10 mph36%29.85 "Hg10 mi
12:51 PM57 °FSunny.12 mph42%29.91 "Hg10 mi
11:51 AM52 °FSunny.7 mph55%29.96 "Hg10 mi
10:51 AM46 °FSunny.5 mph63%29.98 "Hg10 mi
9:51 AM39 °FSunny.No wind79%29.99 "Hg10 mi
8:51 AM33 °FSunny.No wind88%30.01 "Hg10 mi
7:51 AM30 °FSunny.No wind92%30.02 "Hg8 mi
6:51 AM31 °FClear.No wind92%30.02 "Hg10 mi
5:51 AM31 °FClear.No wind92%30.03 "Hg10 mi
4:51 AM32 °FClear.No wind88%30.02 "Hg10 mi
3:51 AM32 °FClear.No wind88%30.01 "Hg10 mi
2:51 AM33 °FClear.No wind88%30.01 "Hg10 mi
1:51 AM35 °FClear.No wind82%30.01 "Hg10 mi
12:51 AM37 °FClear.No wind76%29.99 "Hg10 mi
Weather by CustomWeather, © 2014

See weather overviewHow to use our weather pages